Steamboat Springs, CO

6:02 PM MDT on September 28, 2016 (GMT -0600)
Steamboat Springs-Adams

Weather History for KSBS - October, 2012

Change the Weather History Date:

Tuesday, October 16, 2012

  Actual Average Record
Temperature  
Mean Temperature 48 °F -  
Max Temperature 64 °F 57 °F 76 °F (1914)
Min Temperature 31 °F 23 °F 12 °F (1967)
Degree Days  
Heating Degree Days 18    
Moisture  
Dew Point 31 °F    
Average Humidity 62    
Maximum Humidity 93    
Minimum Humidity 21    
Precipitation  
Precipitation 0.00 in - - ()
Sea Level Pressure  
Sea Level Pressure 29.97 in    
Wind  
Wind Speed 5 mph (WSW)    
Max Wind Speed 24 mph    
Max Gust Speed 41 mph    
Visibility 10 miles    
Events      
Averages and records for this station are not official NWS values.
T = Trace of Precipitation, MM = Missing Value Source: NWS Daily Summary

Daily Weather History Graph

Daily Weather History Graph

Search for Another Location

Airport or City:

Trip Planner

Search our weather history database for the weather conditions in past years. The results will help you decide how hot, cold, wet, or windy it might be!

Date:

Astronomy

Oct. 16, 2012 Rise Set
Actual Time 7:20 AM MDT 6:25 PM MDT
Civil Twilight 6:52 AM MDT 6:52 PM MDT
Nautical Twilight 6:20 AM MDT 7:24 PM MDT
Astronomical Twilight 5:49 AM MDT 7:55 PM MDT
Moon 8:46 AM MDT (10/16) 7:11 PM MDT (10/16)
Length of Visible Light 12h 00m
Length of Day
11h 04m
New Moon, 2% of the Moon is Illuminated
Oct 16
New Moon
Oct 21
First Quarter
Oct 29
Full
Nov 6
Last Quarter
Nov 13
New

Hourly Weather History & Observations

Time (MDT) Temp. Windchill Dew Point Humidity Pressure Visibility Wind Dir Wind Speed Gust Speed Precip Events Conditions
12:13 AM 42.4 °F 38.1 °F 28.4 °F 58% 30.13 in 10.0 mi ESE 6.9 mph - N/A   Overcast
12:33 AM 39.7 °F 34.3 °F 29.1 °F 66% 30.14 in 10.0 mi ESE 8.1 mph - N/A   Mostly Cloudy
12:53 AM 40.8 °F - 29.8 °F 65% 30.15 in 10.0 mi Calm Calm - N/A   Overcast
1:13 AM 40.5 °F - 28.6 °F 63% 30.14 in 10.0 mi Calm Calm - N/A   Overcast
1:33 AM 38.7 °F 36.3 °F 29.3 °F 69% 30.14 in 10.0 mi ESE 3.5 mph - N/A   Mostly Cloudy
1:53 AM 40.1 °F 36.9 °F 28.4 °F 63% 30.13 in 10.0 mi ESE 4.6 mph - N/A   Scattered Clouds
2:13 AM 40.3 °F - 28.0 °F 62% 30.13 in 10.0 mi Calm Calm - N/A   Scattered Clouds
2:33 AM 39.4 °F 36.1 °F 28.4 °F 65% 30.13 in 10.0 mi East 4.6 mph - N/A   Clear
2:53 AM 37.8 °F - 28.9 °F 71% 30.13 in 10.0 mi Calm Calm - N/A   Clear
3:13 AM 36.3 °F - 28.4 °F 73% 30.13 in 10.0 mi Calm Calm - N/A   Clear
3:33 AM 36.3 °F - 28.4 °F 73% 30.11 in 10.0 mi Calm Calm - N/A   Clear
3:53 AM 34.3 °F - 28.4 °F 79% 30.11 in 10.0 mi Calm Calm - N/A   Clear
4:13 AM 34.5 °F - 28.4 °F 78% 30.11 in 10.0 mi Calm Calm - N/A   Clear
4:33 AM 33.8 °F - 28.2 °F 80% 30.11 in 10.0 mi Calm Calm - N/A   Clear
4:53 AM 34.0 °F - 28.0 °F 79% 30.11 in 10.0 mi Calm Calm - N/A   Clear
5:13 AM 32.9 °F - 27.9 °F 82% 30.11 in 10.0 mi Calm Calm - N/A   Clear
5:33 AM 33.1 °F - 27.9 °F 81% 30.10 in 10.0 mi Calm Calm - N/A   Clear
6:13 AM 33.8 °F - 27.9 °F 79% 30.09 in 10.0 mi Calm Calm - N/A   Clear
6:33 AM 32.0 °F - 27.5 °F 83% 30.10 in 10.0 mi Calm Calm - N/A   Clear
6:53 AM 32.2 °F - 28.0 °F 85% 30.10 in 10.0 mi Calm Calm - N/A   Mostly Cloudy
7:13 AM 32.0 °F - 27.5 °F 83% 30.08 in 10.0 mi Calm Calm - N/A   Mostly Cloudy
7:33 AM 31.1 °F - 27.9 °F 88% 30.08 in 10.0 mi Calm Calm - N/A   Scattered Clouds
7:53 AM 31.5 °F - 29.1 °F 91% 30.07 in 10.0 mi Calm Calm - N/A   Scattered Clouds
8:13 AM 32.4 °F - 29.1 °F 88% 30.08 in 10.0 mi Calm Calm - N/A   Scattered Clouds
8:33 AM 33.8 °F - 28.4 °F 81% 30.08 in 10.0 mi Calm Calm - N/A   Clear
8:53 AM 36.5 °F - 30.0 °F 77% 30.07 in 10.0 mi Calm Calm - N/A   Clear
9:13 AM 39.4 °F - 30.9 °F 72% 30.05 in 10.0 mi Calm Calm - N/A   Clear
9:33 AM 39.0 °F - 31.3 °F 74% 30.05 in 10.0 mi Calm Calm - N/A   Clear
9:53 AM 41.9 °F - 30.7 °F 65% 30.05 in 10.0 mi Calm Calm - N/A   Clear
10:13 AM 43.0 °F - 31.5 °F 64% 30.04 in 10.0 mi Calm Calm - N/A   Clear
10:33 AM 47.3 °F - 31.6 °F 55% 30.03 in 10.0 mi Calm Calm - N/A   Clear
10:53 AM 49.3 °F - 30.6 °F 49% 30.02 in 10.0 mi Calm Calm - N/A   Scattered Clouds
11:13 AM 53.2 °F - 31.6 °F 44% 30.01 in 10.0 mi Calm Calm - N/A   Scattered Clouds
11:33 AM 53.6 °F - 31.8 °F 44% 30.00 in 10.0 mi Calm Calm - N/A   Scattered Clouds
11:53 AM 57.6 °F - 26.6 °F 31% 29.99 in 10.0 mi Calm Calm - N/A   Scattered Clouds
12:13 PM 57.2 °F - 25.9 °F 30% 29.96 in 10.0 mi Calm Calm - N/A   Scattered Clouds
12:33 PM 58.1 °F - 26.6 °F 30% 29.95 in 10.0 mi SSW 5.8 mph - N/A   Mostly Cloudy
12:53 PM 61.7 °F - 26.2 °F 26% 29.93 in 10.0 mi SW 3.5 mph - N/A   Overcast
1:13 PM 62.2 °F - 24.4 °F 24% 29.90 in 10.0 mi WSW 17.3 mph 26.5 mph N/A   Mostly Cloudy
1:33 PM 63.3 °F - 23.9 °F 22% 29.88 in 10.0 mi SW 16.1 mph 25.3 mph N/A   Scattered Clouds
1:53 PM 64.2 °F - 23.0 °F 21% 29.85 in 10.0 mi West 20.7 mph 26.5 mph N/A   Clear
2:13 PM 63.1 °F - 24.3 °F 23% 29.83 in 10.0 mi West 18.4 mph 27.6 mph N/A   Clear
2:33 PM 62.6 °F - 25.2 °F 24% 29.82 in 10.0 mi WSW 19.6 mph 26.5 mph N/A   Mostly Cloudy
2:53 PM 62.8 °F - 25.3 °F 24% 29.80 in 10.0 mi WSW 15.0 mph 21.9 mph N/A   Overcast
3:13 PM 62.2 °F - 25.7 °F 25% 29.80 in 10.0 mi SW 13.8 mph 23.0 mph N/A   Overcast
3:33 PM 61.7 °F - 25.9 °F 26% 29.79 in 10.0 mi WSW 15.0 mph 25.3 mph N/A   Overcast
3:53 PM 61.7 °F - 26.2 °F 26% 29.78 in 10.0 mi WSW 15.0 mph 26.5 mph N/A   Overcast
4:13 PM 61.7 °F - 26.8 °F 27% 29.77 in 10.0 mi WSW 12.7 mph 25.3 mph N/A   Overcast
4:33 PM 61.0 °F - 28.2 °F 29% 29.77 in 10.0 mi West 10.4 mph 20.7 mph N/A   Overcast
4:53 PM 60.3 °F - 28.2 °F 30% 29.75 in 10.0 mi West 11.5 mph 17.3 mph N/A   Overcast
5:13 PM 59.7 °F - 30.2 °F 33% 29.77 in 10.0 mi WSW 9.2 mph - N/A   Overcast
5:33 PM 53.8 °F - 37.9 °F 55% 29.80 in 7.0 mi WSW 18.4 mph 33.4 mph N/A   Overcast
5:53 PM 51.1 °F - 39.9 °F 66% 29.78 in 10.0 mi Calm Calm - N/A   Overcast
6:13 PM 50.7 °F - 40.6 °F 68% 29.78 in 5.0 mi West 13.8 mph 28.8 mph N/A   Overcast
6:33 PM 50.0 °F - 40.6 °F 70% 29.75 in 10.0 mi WNW 15.0 mph 21.9 mph N/A   Overcast
6:53 PM 50.0 °F - 41.0 °F 71% 29.78 in 10.0 mi West 16.1 mph 27.6 mph N/A   Overcast
7:13 PM 49.8 °F - 41.7 °F 74% 29.80 in 5.0 mi West 24.2 mph 35.7 mph N/A   Overcast
7:33 PM 45.0 °F 36.2 °F 38.7 °F 79% 29.85 in 4.0 mi WNW 24.2 mph 41.4 mph N/A   Overcast
7:53 PM 44.1 °F 36.8 °F 38.1 °F 80% 29.83 in 7.0 mi NW 16.1 mph 31.1 mph N/A   Overcast
8:13 PM 44.2 °F 38.0 °F 37.6 °F 77% 29.89 in 10.0 mi WSW 12.7 mph - N/A   Overcast
8:33 PM 43.9 °F 38.3 °F 36.5 °F 75% 29.90 in 10.0 mi West 10.4 mph 23.0 mph N/A   Overcast
8:53 PM 41.2 °F 31.9 °F 34.9 °F 78% 29.92 in 4.0 mi West 20.7 mph 35.7 mph N/A   Overcast
9:33 PM 40.1 °F - 37.6 °F 91% 29.91 in 10.0 mi Calm Calm - N/A   Overcast
9:53 PM 40.6 °F - 37.4 °F 88% 29.92 in 10.0 mi Calm Calm - N/A   Overcast
10:13 PM 40.3 °F 35.5 °F 38.3 °F 93% 29.90 in 10.0 mi SE 6.9 mph - N/A   Overcast
10:33 PM 40.3 °F 35.5 °F 38.5 °F 93% 29.89 in 10.0 mi North 6.9 mph - N/A   Overcast
10:53 PM 41.9 °F - 34.9 °F 76% 29.91 in 10.0 mi Calm Calm - N/A   Overcast
11:13 PM 41.5 °F - 34.3 °F 76% 29.92 in 10.0 mi Calm Calm - N/A   Mostly Cloudy
11:33 PM 41.0 °F - 34.3 °F 77% 29.92 in 10.0 mi Calm Calm - N/A   Scattered Clouds
11:53 PM 40.3 °F 36.3 °F 33.1 °F 75% 29.92 in 10.0 mi NNW 5.8 mph - N/A   Clear